• In Deutschland
  • Länderverzeichnis
  • Für 7 Tage
  • Wassertemperatur
  • Satellitenkarten
  • Wetterkarte
  • Widgets
  • user-avatar
    Anmelden

    Stündliche Wetter Kasama

    Heute, 22 September, Samstag

    Zeit Temperatur Niederschläge Wind Luftdruck Luftfeuchtigkeit
    00:00 +25°C° 2.3 mm 2 m/S 721 mmHg 89%
    01:00 +25°C° 2.3 mm 2 m/S 721 mmHg 90%
    02:00 +24°C° 2.3 mm 1 m/S 720 mmHg 92%
    03:00 +24°C° 0.2 mm 1 m/S 720 mmHg 91%
    04:00 +24°C° 0.2 mm 1 m/S 720 mmHg 91%
    05:00 +24°C° 0.2 mm 1 m/S 720 mmHg 90%
    06:00 +25°C° 0 mm 1 m/S 720 mmHg 86%
    07:00 +27°C° 0 mm 2 m/S 720 mmHg 82%
    08:00 +28°C° 0 mm 2 m/S 721 mmHg 78%
    09:00 +30°C° 0 mm 2 m/S 721 mmHg 67%
    10:00 +34°C° 0 mm 3 m/S 721 mmHg 56%
    11:00 +36°C° 0 mm 3 m/S 722 mmHg 45%
    12:00 +37°C° 0 mm 3 m/S 721 mmHg 41%
    13:00 +38°C° 0 mm 2 m/S 720 mmHg 38%
    14:00 +39°C° 0 mm 2 m/S 720 mmHg 34%
    15:00 +37°C° 0 mm 1 m/S 719 mmHg 39%
    16:00 +35°C° 0 mm 1 m/S 719 mmHg 43%
    17:00 +34°C° 0 mm 1 m/S 719 mmHg 48%
    18:00 +33°C° 0.1 mm 1 m/S 719 mmHg 51%
    19:00 +31°C° 0.1 mm 1 m/S 719 mmHg 54%
    20:00 +28°C° 0.1 mm 0 m/S 720 mmHg 58%
    21:00 +29°C° 0.4 mm 1 m/S 720 mmHg 62%
    22:00 +28°C° 0.4 mm 1 m/S 720 mmHg 67%
    23:00 +27°C° 0.4 mm 1 m/S 721 mmHg 72%

    Morgen, 23 September, Sonntag

    Zeit Temperatur Niederschläge Wind Luftdruck Luftfeuchtigkeit
    00:00 +27°C° 0 mm 1 m/S 720 mmHg 74%
    01:00 +26°C° 0 mm 1 m/S 720 mmHg 76%
    02:00 +26°C° 0 mm 1 m/S 719 mmHg 77%
    03:00 +26°C° 0 mm 1 m/S 720 mmHg 77%
    04:00 +23°C° 0 mm 0 m/S 720 mmHg 78%
    05:00 +23°C° 0 mm 0 m/S 720 mmHg 78%
    06:00 +25°C° 0 mm 0 m/S 720 mmHg 73%
    07:00 +27°C° 0 mm 0 m/S 721 mmHg 67%
    08:00 +28°C° 0 mm 0 m/S 722 mmHg 62%
    09:00 +33°C° 0 mm 1 m/S 722 mmHg 54%
    10:00 +35°C° 0 mm 1 m/S 722 mmHg 46%
    11:00 +37°C° 0 mm 1 m/S 722 mmHg 38%
    12:00 +39°C° 0 mm 1 m/S 721 mmHg 35%
    13:00 +40°C° 0 mm 1 m/S 720 mmHg 33%
    14:00 +40°C° 0 mm 1 m/S 720 mmHg 30%
    15:00 +39°C° 0 mm 1 m/S 719 mmHg 35%
    16:00 +36°C° 0 mm 1 m/S 719 mmHg 39%
    17:00 +35°C° 0 mm 1 m/S 719 mmHg 44%
    18:00 +34°C° 0 mm 1 m/S 719 mmHg 45%
    19:00 +32°C° 0 mm 1 m/S 720 mmHg 47%
    20:00 +29°C° 0 mm 0 m/S 720 mmHg 48%
    21:00 +28°C° 0.2 mm 0 m/S 720 mmHg 51%
    22:00 +28°C° 0.2 mm 0 m/S 720 mmHg 53%
    23:00 +27°C° 0.2 mm 0 m/S 720 mmHg 56%

    übermorgen, 24 September, Montag

    Zeit Temperatur Niederschläge Wind Luftdruck Luftfeuchtigkeit
    00:00 +27°C° 0.1 mm 0 m/S 720 mmHg 57%
    01:00 +26°C° 0.1 mm 0 m/S 719 mmHg 58%
    02:00 +28°C° 0.1 mm 1 m/S 719 mmHg 59%
    03:00 +28°C° 0 mm 1 m/S 719 mmHg 60%
    04:00 +28°C° 0 mm 1 m/S 719 mmHg 61%
    05:00 +25°C° 0 mm 0 m/S 719 mmHg 62%
    06:00 +28°C° 0 mm 1 m/S 719 mmHg 60%
    07:00 +30°C° 0 mm 2 m/S 720 mmHg 59%
    08:00 +31°C° 0 mm 2 m/S 721 mmHg 57%
    09:00 +34°C° 0 mm 2 m/S 721 mmHg 50%
    10:00 +36°C° 0 mm 2 m/S 721 mmHg 43%
    11:00 +39°C° 0 mm 2 m/S 721 mmHg 36%
    12:00 +39°C° 0 mm 1 m/S 720 mmHg 36%
    13:00 +39°C° 0 mm 1 m/S 720 mmHg 37%
    14:00 +36°C° 0 mm 0 m/S 719 mmHg 37%
    15:00 +35°C° 0 mm 0 m/S 719 mmHg 40%
    16:00 +36°C° 0 mm 1 m/S 718 mmHg 43%
    17:00 +34°C° 0 mm 1 m/S 718 mmHg 47%
    18:00 +32°C° 0.3 mm 1 m/S 719 mmHg 53%
    19:00 +31°C° 0.3 mm 2 m/S 719 mmHg 58%
    20:00 +29°C° 0.3 mm 2 m/S 719 mmHg 64%
    21:00 +28°C° 0.5 mm 2 m/S 720 mmHg 70%
    22:00 +27°C° 0.5 mm 2 m/S 720 mmHg 75%
    23:00 +26°C° 0.5 mm 2 m/S 720 mmHg 80%

    25 September, Dienstag

    Zeit Temperatur Niederschläge Wind Luftdruck Luftfeuchtigkeit
    00:00 +26°C° 0 mm 2 m/S 720 mmHg 80%
    01:00 +26°C° 0 mm 2 m/S 719 mmHg 80%
    02:00 +26°C° 0 mm 2 m/S 718 mmHg 80%
    03:00 +26°C° 0 mm 2 m/S 719 mmHg 79%
    04:00 +26°C° 0 mm 1 m/S 719 mmHg 78%
    05:00 +26°C° 0 mm 1 m/S 719 mmHg 78%
    06:00 +27°C° 0 mm 1 m/S 720 mmHg 72%
    07:00 +29°C° 0 mm 1 m/S 720 mmHg 65%
    08:00 +31°C° 0 mm 1 m/S 721 mmHg 59%
    09:00 +34°C° 0 mm 2 m/S 721 mmHg 51%
    10:00 +36°C° 0 mm 3 m/S 721 mmHg 43%
    11:00 +39°C° 0 mm 3 m/S 721 mmHg 36%
    12:00 +39°C° 0 mm 3 m/S 720 mmHg 33%
    13:00 +40°C° 0 mm 3 m/S 719 mmHg 30%
    14:00 +41°C° 0 mm 2 m/S 718 mmHg 27%
    15:00 +40°C° 0 mm 2 m/S 718 mmHg 31%
    16:00 +37°C° 0 mm 1 m/S 718 mmHg 34%
    17:00 +36°C° 0 mm 1 m/S 718 mmHg 38%
    18:00 +35°C° 0 mm 1 m/S 718 mmHg 40%
    19:00 +33°C° 0 mm 1 m/S 719 mmHg 43%
    20:00 +32°C° 0 mm 1 m/S 719 mmHg 45%
    21:00 +31°C° 0 mm 1 m/S 719 mmHg 47%
    22:00 +30°C° 0 mm 1 m/S 719 mmHg 50%
    23:00 +29°C° 0 mm 1 m/S 719 mmHg 52%

    26 September, Mittwoch

    Zeit Temperatur Niederschläge Wind Luftdruck Luftfeuchtigkeit
    00:00 +29°C° 0.3 mm 1 m/S 719 mmHg 55%
    01:00 +28°C° 0.3 mm 1 m/S 719 mmHg 59%
    02:00 +28°C° 0.3 mm 1 m/S 719 mmHg 62%
    03:00 +27°C° 0.9 mm 1 m/S 719 mmHg 68%
    04:00 +26°C° 0.9 mm 1 m/S 720 mmHg 74%
    05:00 +25°C° 0.9 mm 1 m/S 720 mmHg 80%
    06:00 +26°C° 0.6 mm 1 m/S 721 mmHg 79%
    07:00 +27°C° 0.6 mm 1 m/S 722 mmHg 77%
    08:00 +28°C° 0.6 mm 1 m/S 722 mmHg 75%
    09:00 +31°C° 0 mm 2 m/S 722 mmHg 64%
    10:00 +34°C° 0 mm 2 m/S 722 mmHg 53%
    11:00 +37°C° 0 mm 3 m/S 722 mmHg 42%
    12:00 +37°C° 0 mm 2 m/S 721 mmHg 40%
    13:00 +38°C° 0 mm 2 m/S 720 mmHg 37%
    14:00 +39°C° 0 mm 2 m/S 719 mmHg 34%
    15:00 +38°C° 0 mm 2 m/S 719 mmHg 38%
    16:00 +37°C° 0 mm 2 m/S 719 mmHg 42%
    17:00 +35°C° 0 mm 1 m/S 719 mmHg 46%
    18:00 +33°C° 0 mm 1 m/S 719 mmHg 49%
    19:00 +32°C° 0 mm 1 m/S 720 mmHg 51%
    20:00 +31°C° 0 mm 1 m/S 720 mmHg 54%
    21:00 +30°C° 0 mm 1 m/S 720 mmHg 55%
    22:00 +30°C° 0 mm 1 m/S 720 mmHg 57%
    23:00 +29°C° 0 mm 1 m/S 720 mmHg 59%

    27 September, Donnerstag

    Zeit Temperatur Niederschläge Wind Luftdruck Luftfeuchtigkeit
    00:00 +29°C° 0 mm 1 m/S 720 mmHg 60%
    01:00 +28°C° 0 mm 1 m/S 719 mmHg 62%
    02:00 +28°C° 0 mm 1 m/S 719 mmHg 64%
    03:00 +28°C° 0 mm 1 m/S 719 mmHg 65%
    04:00 +27°C° 0 mm 1 m/S 719 mmHg 66%
    05:00 +25°C° 0 mm 0 m/S 720 mmHg 68%
    06:00 +28°C° 0 mm 1 m/S 720 mmHg 65%
    07:00 +30°C° 0 mm 1 m/S 721 mmHg 61%
    08:00 +31°C° 0 mm 1 m/S 721 mmHg 58%
    09:00 +33°C° 0 mm 1 m/S 721 mmHg 52%
    10:00 +36°C° 0 mm 2 m/S 721 mmHg 46%
    11:00 +38°C° 0 mm 2 m/S 721 mmHg 40%
    12:00 +39°C° 0 mm 1 m/S 720 mmHg 37%
    13:00 +40°C° 0 mm 1 m/S 720 mmHg 33%
    14:00 +41°C° 0 mm 1 m/S 719 mmHg 30%
    15:00 +40°C° 0 mm 1 m/S 719 mmHg 34%
    16:00 +37°C° 0 mm 1 m/S 719 mmHg 38%
    17:00 +34°C° 0 mm 0 m/S 719 mmHg 41%
    18:00 +34°C° 0.1 mm 1 m/S 719 mmHg 44%
    19:00 +33°C° 0.1 mm 1 m/S 719 mmHg 46%
    20:00 +31°C° 0.1 mm 1 m/S 719 mmHg 49%
    21:00 +31°C° 0.2 mm 1 m/S 720 mmHg 52%
    22:00 +30°C° 0.2 mm 1 m/S 720 mmHg 56%
    23:00 +27°C° 0.2 mm 0 m/S 720 mmHg 60%
    Mehr zeigen